Temperature
13 14 14 15 18 19 20 21 20 20 20 19 19 20 22 22 22 21 17 17 16 16 16 16 16 15 15 15 15 15 15 15 15 15 15 15 15 15 15 15 15 15 15 15 15 15 15 15 15
13 14 14 16 19 20 20 21 20 20 20 18 18 19 20 21 19 17 17 16 16 16 15 15 15 15 15 15 15 15 15 15 15 15 15 15 15 15 15 15 15 15 15 15 15 15 15 15 15
13 14 15 18 18 20 21 20 20 19 17 18 19 19 20 20 17 17 17 16 16 15 15 15 15 15 15 15 15 15 15 15 15 15 15 15 15 15 15 15 15 15 15 15 15 15 15 15 15
13 14 15 17 18 19 20 20 19 18 17 17 18 19 18 16 16 16 17 16 15 15 15 15 15 15 15 15 15 15 15 15 15 15 15 15 15 14 14 14 15 15 15 15 15 15 15 14 14
13 15 16 17 18 19 18 18 17 19 19 18 18 19 18 16 16 17 16 15 15 15 15 15 15 15 15 15 15 15 15 15 15 15 15 14 14 14 14 14 14 14 14 14 14 14 14 14 14
13 15 17 17 18 18 18 16 17 18 18 17 17 18 17 15 16 16 15 15 15 14 14 15 15 15 14 14 14 14 14 14 14 14 14 14 14 14 14 14 14 14 14 14 14 14 14 14 14
14 15 17 18 18 18 18 16 17 18 18 18 17 18 17 15 15 15 15 14 14 14 14 14 14 14 14 14 14 14 14 14 14 14 14 14 14 14 14 14 14 14 14 14 14 14 14 14 14
13 15 16 16 17 18 17 15 16 17 18 16 16 18 17 15 15 15 14 14 14 14 14 14 14 14 14 14 14 14 14 14 14 14 14 14 14 14 14 14 14 14 14 14 14 14 13 13 13
12 14 15 16 16 17 16 16 15 15 15 15 15 16 15 15 15 14 14 14 14 14 14 14 14 13 13 13 13 13 13 13 13 13 14 13 13 13 13 13 13 13 13 13 13 13 13 13 13
12 14 15 16 16 16 15 15 15 15 16 15 14 14 14 14 14 14 14 14 14 14 14 14 14 13 13 13 13 13 13 13 13 13 13 13 13 13 13 13 13 13 13 13 13 13 13 13 12
12 14 15 14 14 14 15 15 14 16 16 16 16 14 14 13 13 13 13 13 13 13 13 13 13 13 13 13 13 13 13 13 13 13 13 13 13 13 13 13 13 13 13 13 13 12 12 12 12
12 13 13 13 12 12 14 14 14 14 15 14 14 13 13 13 13 13 13 13 13 13 13 13 13 13 13 13 12 12 12 12 12 12 12 13 13 13 13 13 13 12 12 12 12 12 12 12 12
12 12 12 11 11 11 12 13 13 13 13 13 13 12 12 12 12 12 12 12 12 13 13 13 13 13 12 12 12 12 12 12 12 12 12 12 12 12 12 12 12 12 12 12 12 12 12 12 11
12 11 11 11 11 11 12 12 12 13 12 12 12 12 12 12 12 12 12 12 12 12 12 12 12 12 12 12 12 12 12 12 12 12 12 12 12 12 12 12 12 12 12 12 12 12 12 11 11
10 11 11 12 11 11 12 12 12 12 11 11 11 11 11 11 11 11 11 12 12 12 12 12 12 12 12 12 12 12 12 12 12 12 12 12 12 12 12 12 12 12 12 12 12 11 11 11 11
10 11 11 12 11 11 12 13 13 11 11 11 10 10 10 10 10 10 11 11 11 11 12 12 12 12 12 12 11 12 12 11 12 12 12 12 12 12 12 12 12 11 11 11 11 11 11 11 11
10 10 11 11 11 11 11 12 12 10 10 10 10 10 9 9 9 10 10 10 11 11 11 11 11 11 11 11 11 11 11 11 11 11 11 11 11 11 11 11 11 11 11 11 11 11 11 10 10
10 10 10 10 10 10 11 11 11 9 9 9 9 8 8 8 8 9 9 10 10 10 11 11 11 11 11 11 11 11 11 11 11 11 11 11 11 11 11 11 11 11 11 11 11 10 10 10 10
9 9 10 10 10 9 10 10 10 9 8 8 8 8 7 7 8 8 9 9 10 10 10 10 11 11 11 10 11 11 10 10 10 11 11 11 11 11 11 11 11 11 11 10 10 10 10 10 9
8 8 9 9 8 9 9 9 9 8 8 7 7 7 7 6 7 7 8 8 9 9 10 10 10 10 10 10 10 10 10 10 10 10 10 10 11 11 10 10 10 10 10 10 10 10 10 9 9
7 7 8 8 8 8 8 9 8 8 7 6 6 6 6 6 6 6 6 7 8 8 9 9 10 10 10 10 10 10 10 10 10 10 10 10 10 10 10 10 10 10 10 10 10 10 9 9 9
6 6 7 7 7 8 8 8 9 8 7 6 5 5 5 4 5 5 5 6 7 7 8 9 9 9 9 9 9 9 9 9 10 10 10 10 10 10 10 10 10 10 10 10 10 9 9 9 9
5 6 6 6 7 7 7 7 8 7 6 5 5 4 3 3 3 4 4 5 6 6 7 8 8 8 9 9 9 9 9 9 9 9 9 9 9 9 10 10 9 10 9 9 9 9 9 9 9
5 5 6 6 6 6 7 7 7 5 4 4 4 3 2 2 2 3 3 4 5 6 7 7 8 8 8 8 8 8 9 9 9 9 9 9 9 9 9 9 9 9 9 9 9 9 9 9 8
4 5 5 5 5 6 7 6 5 3 3 3 2 2 1 1 2 2 3 3 4 5 6 6 7 7 8 8 8 8 8 8 8 8 8 9 9 9 9 9 9 9 9 9 9 9 9 8 8
3 4 4 5 6 6 5 5 3 2 1 1 1 1 1 0 1 1 1 2 2 3 5 5 6 7 7 7 7 8 8 8 8 8 8 8 8 9 9 9 9 9 9 9 9 8 8 8 8
3 3 3 4 4 4 5 3 2 1 1 0 0 0 -0 -0 -0 0 1 1 2 3 4 5 5 6 6 6 7 7 7 7 7 7 7 8 8 8 8 8 8 8 8 8 8 8 8 8 8
2 2 3 3 3 4 4 3 2 0 -0 -0 -0 -1 -1 -1 -1 -1 -0 0 1 2 3 3 4 5 5 6 6 6 7 7 7 7 7 7 7 8 8 8 8 8 8 8 8 8 8 8 8
1 1 1 2 3 3 3 2 0 -1 -1 -1 -1 -2 -2 -2 -2 -2 -1 -1 0 1 2 3 3 4 4 5 5 6 6 6 6 7 7 7 7 7 7 7 7 7 8 8 7 7 7 7 7
-0 -0 -0 1 1 2 2 1 -1 -1 -2 -2 -2 -3 -3 -3 -3 -2 -2 -1 -1 -0 1 2 2 3 4 4 5 5 5 5 6 6 6 6 7 7 7 7 7 7 7 7 7 7 7 7 7
Wind_Speed
2 1 2 3 5 6 12 9 6 6 5 5 5 5 6 6 4 0 4 10 13 16 17 18 17 16 16 15 15 14 14 13 13 14 14 14 14 14 13 13 13 13 14 15 15 15 15 15 15
2 2 3 4 7 11 10 11 11 9 4 4 5 5 5 6 0 2 5 11 14 16 17 17 17 17 16 15 15 14 14 13 13 13 13 13 13 13 13 13 13 13 14 14 14 15 15 15 14
3 2 4 5 8 13 9 7 9 6 5 4 5 4 4 3 3 4 6 13 15 15 16 17 18 17 16 15 15 14 13 13 13 13 13 13 13 13 13 13 13 13 13 14 14 14 14 14 14
4 4 3 7 14 13 9 4 5 5 5 6 5 4 3 0 1 4 10 14 15 15 16 17 17 17 16 15 15 14 13 13 13 12 12 12 12 13 13 13 13 13 12 13 14 14 13 13 14
3 4 7 10 15 10 8 6 5 6 6 6 7 5 4 2 3 6 12 14 15 14 14 16 17 17 16 15 15 14 14 13 13 12 12 12 12 13 13 12 12 12 12 13 13 13 13 13 13
5 5 9 15 15 10 9 8 7 9 7 5 6 5 3 3 6 9 12 13 13 14 14 15 16 15 15 15 14 14 13 13 13 12 12 12 12 13 13 13 12 12 12 12 13 13 13 13 12
6 6 10 13 13 11 8 7 9 10 10 8 5 5 4 5 7 10 12 12 12 13 12 13 14 15 14 14 14 14 13 13 13 13 13 12 13 12 12 12 12 12 12 12 12 13 13 12 12
5 5 9 11 12 11 6 6 5 9 8 4 6 6 5 6 9 10 11 11 11 11 11 12 13 13 13 13 13 14 13 13 13 13 13 14 13 12 12 12 12 12 12 12 12 12 12 12 12
5 8 13 12 10 7 6 6 4 3 5 4 4 4 1 8 11 12 11 11 10 10 10 11 12 12 12 12 12 13 13 13 13 12 13 13 11 11 10 10 12 12 11 12 12 12 12 12 11
8 12 15 9 7 5 5 6 5 5 7 6 5 4 5 9 12 13 14 14 13 13 12 11 11 11 11 10 11 10 10 11 11 10 11 9 9 8 8 11 11 12 11 11 11 11 11 9 8
9 12 10 8 7 5 6 6 5 7 9 8 8 7 7 9 11 13 13 13 13 13 11 10 11 11 11 9 9 8 8 9 9 10 10 8 8 8 8 8 9 10 10 9 10 10 8 7 6
9 12 10 8 6 6 7 6 7 10 9 4 3 5 8 9 10 10 11 11 11 11 11 10 10 10 10 10 9 8 8 8 8 9 10 9 7 6 7 6 7 7 7 7 7 6 7 7 7
14 11 10 9 7 7 7 9 9 11 8 6 4 5 7 8 9 9 8 8 8 10 10 10 10 10 9 9 8 8 8 8 9 9 9 9 7 6 6 6 6 6 7 7 7 7 7 7 7
9 9 9 10 11 9 10 11 10 11 7 6 6 7 8 9 9 8 8 8 8 9 9 9 9 10 10 8 8 8 8 8 9 9 10 10 8 7 7 6 6 6 6 6 6 7 6 6 5
6 9 10 10 10 7 7 12 13 10 7 6 6 7 8 8 8 8 9 9 9 9 9 9 9 9 9 9 8 7 8 9 8 8 10 9 8 8 7 6 6 6 7 7 6 7 6 5 5
7 9 10 7 8 7 9 14 7 5 7 7 7 7 7 6 7 7 7 8 8 8 8 9 8 9 9 8 8 7 7 8 7 8 9 10 9 9 8 6 6 7 7 7 6 6 5 5 4
9 11 13 8 7 6 10 11 4 2 4 6 5 5 4 4 5 5 5 6 7 8 8 8 8 9 9 8 7 7 7 7 6 7 7 8 9 10 8 7 7 8 7 6 6 6 6 6 5
10 12 12 11 5 7 11 11 6 4 4 4 3 3 3 4 5 4 4 4 5 7 7 8 8 8 8 7 6 5 6 6 6 6 7 9 9 9 9 7 8 8 7 6 6 7 6 5 5
9 11 12 10 6 8 11 12 8 6 4 4 4 3 3 4 4 3 3 3 4 5 6 7 8 8 7 6 6 6 6 6 6 6 8 9 9 9 8 6 8 8 7 8 8 7 7 5 5
9 11 11 8 5 7 9 11 8 5 4 4 4 4 4 4 4 3 2 2 3 4 5 6 7 8 8 7 7 6 7 5 5 6 7 9 9 10 8 8 7 8 7 8 9 8 6 4 5
9 10 9 7 5 6 7 9 8 5 2 2 3 3 4 4 4 4 3 3 3 4 5 5 7 7 8 8 6 5 5 4 5 6 6 7 9 9 9 8 7 8 7 8 9 9 8 6 5
8 6 8 8 7 6 7 7 6 4 1 2 4 4 5 5 5 4 3 3 3 3 3 4 5 6 7 8 8 9 8 7 7 7 6 7 9 9 9 9 8 7 7 8 8 8 7 8 6
5 5 7 9 9 8 9 8 5 1 2 4 5 6 6 5 5 5 4 4 3 2 2 3 4 5 5 7 9 10 9 8 6 7 8 7 7 8 8 9 8 8 7 7 8 8 8 7 7
4 3 4 6 6 8 10 9 4 0 3 5 6 7 7 7 6 6 5 4 3 2 1 2 3 4 5 6 7 9 10 9 9 8 8 7 6 6 8 8 8 8 7 8 8 8 9 8 8
3 2 3 5 7 8 5 6 1 4 6 6 7 7 7 8 7 7 6 6 5 4 2 2 2 3 4 5 6 7 8 9 10 9 8 8 6 6 8 8 8 7 7 8 7 8 8 8 8
3 3 4 5 7 5 4 5 3 5 7 8 7 7 8 8 8 7 7 6 5 5 4 2 2 2 3 4 5 5 6 6 6 8 7 8 7 7 9 9 9 9 8 8 8 7 7 7 7
3 3 4 5 5 5 4 3 2 6 9 11 10 9 9 9 8 8 7 7 6 5 5 4 2 2 2 3 3 4 5 6 6 6 7 6 6 6 9 9 9 9 8 8 8 7 7 7 7
4 3 2 3 4 5 4 3 2 7 10 11 12 11 10 10 9 8 8 7 6 5 5 5 3 2 2 2 3 2 3 5 5 6 7 6 7 7 8 9 9 8 8 9 8 7 7 7 7
5 4 3 3 4 4 4 1 4 4 7 8 10 10 10 10 9 8 8 8 7 7 6 5 5 3 2 2 2 2 2 3 5 6 6 6 6 7 7 8 9 8 8 9 8 8 8 8 7
4 5 4 3 3 3 3 0 5 6 8 8 9 10 10 10 9 9 8 8 8 8 7 6 6 4 3 2 2 2 2 3 4 5 5 5 6 6 7 7 8 8 8 8 9 9 8 9 9
Wind_Direction
129 153 202 200 201 219 230 221 215 195 201 204 195 204 215 208 211 123 95 152 150 152 154 154 150 147 144 142 139 138 137 135 134 134 132 131 128 126 123 121 118 115 112 110 108 107 106 103 101
155 175 191 203 220 222 225 221 213 209 181 167 193 211 213 215 258 94 138 154 154 153 154 155 149 147 145 144 142 141 139 136 135 136 135 133 131 128 125 122 119 116 113 111 111 110 109 107 103
150 201 201 203 221 226 223 206 215 207 203 194 189 209 220 203 151 142 144 154 155 153 155 150 148 148 147 145 144 143 141 139 136 136 135 134 133 131 128 124 120 117 115 115 114 113 111 110 107
180 178 203 224 227 228 234 190 180 187 196 209 203 195 194 116 142 137 147 155 155 154 154 151 151 150 149 148 147 145 143 142 139 137 135 132 131 129 127 124 121 119 118 119 118 117 116 113 109
199 200 208 227 233 228 230 230 207 204 191 193 204 212 194 139 129 143 154 158 156 154 152 152 154 152 152 152 150 149 147 144 141 140 138 135 132 130 129 127 126 124 123 123 122 123 121 117 113
189 209 221 230 229 227 230 224 219 222 216 197 202 213 196 140 151 154 157 159 156 153 150 151 151 150 152 153 152 152 151 150 145 143 140 136 133 132 132 132 130 129 126 126 126 126 122 119 115
209 212 232 238 236 233 225 208 219 220 218 208 199 205 179 161 156 157 158 157 155 154 154 154 158 155 152 151 152 151 150 148 144 141 138 133 131 132 133 132 133 132 130 130 128 127 124 121 116
220 221 234 233 234 235 209 196 223 225 228 213 207 217 202 163 154 156 157 158 157 158 160 158 160 161 161 157 150 147 144 141 138 134 131 127 127 129 131 134 132 134 133 131 128 125 125 122 118
206 226 231 226 226 227 191 201 205 216 213 201 215 244 152 141 154 158 160 163 164 165 166 164 162 160 161 161 156 151 145 143 141 139 135 139 143 140 139 133 132 133 132 131 129 125 125 124 120
206 228 233 231 228 223 196 212 205 201 215 219 215 210 159 159 168 172 175 175 176 175 173 172 168 163 162 162 163 165 162 159 161 158 157 156 150 143 135 126 129 131 132 131 131 130 132 136 131
212 234 240 235 234 242 228 230 221 222 233 231 218 191 170 174 181 184 186 185 182 179 176 176 172 169 167 166 168 169 168 168 169 166 164 157 149 146 145 144 141 142 145 144 143 147 143 138 130
225 239 241 239 234 237 242 237 234 235 245 252 216 178 174 182 188 192 192 191 186 183 182 179 175 173 174 172 172 171 170 172 171 170 167 163 158 158 157 157 157 157 156 152 153 150 144 140 138
230 240 241 245 243 246 250 246 251 251 257 258 229 200 196 195 195 197 197 194 191 189 187 185 181 179 176 175 175 176 176 178 174 171 174 173 168 166 162 162 161 162 159 158 155 152 146 143 140
235 241 245 248 248 248 246 256 252 254 254 237 217 212 211 207 204 200 200 200 199 197 194 189 186 185 180 180 180 180 178 177 176 175 178 179 176 172 168 166 165 164 163 159 159 156 149 144 142
233 244 251 243 237 238 243 254 245 251 236 227 221 218 217 218 213 211 209 207 205 203 197 192 188 187 184 183 182 178 178 179 178 179 180 182 181 180 176 171 171 168 165 160 156 153 151 143 143
225 235 240 229 222 222 220 248 251 246 225 228 230 226 224 224 225 227 223 216 210 206 200 194 190 189 188 185 182 176 176 178 179 179 181 184 184 183 179 174 175 170 167 164 160 160 157 155 154
219 232 238 240 221 222 223 253 268 256 227 234 236 234 233 237 241 242 234 223 214 210 203 194 191 192 189 183 179 176 173 175 176 177 178 181 185 185 181 178 173 171 171 171 167 167 166 161 155
226 233 240 240 230 228 235 248 259 272 254 248 246 252 253 252 257 256 243 231 219 212 207 198 193 192 188 179 175 172 172 175 177 179 182 181 181 185 184 179 176 173 173 173 172 167 167 162 154
247 241 246 249 248 237 241 251 257 265 266 264 265 268 276 275 276 274 255 240 222 211 206 203 197 189 183 182 182 182 183 183 182 184 184 184 182 181 183 182 178 180 181 180 175 167 165 161 156
241 243 251 257 253 249 252 258 260 263 258 266 274 284 292 301 303 295 271 237 223 215 211 205 202 196 191 192 191 192 184 187 185 182 186 186 183 183 184 182 181 182 181 180 178 175 173 169 181
241 240 246 255 276 245 252 256 238 231 227 285 294 292 298 300 300 300 282 254 232 223 218 212 207 200 197 191 184 175 174 176 183 186 188 191 188 185 184 184 182 183 183 183 184 185 186 179 184
254 257 261 253 244 244 226 248 227 216 239 339 339 339 332 328 321 315 306 281 252 240 226 216 209 201 196 190 186 184 188 190 193 188 187 187 188 186 183 184 185 183 186 186 187 190 193 187 184
274 284 261 251 246 253 236 237 230 180 266 336 349 349 344 336 332 328 323 307 290 269 237 218 207 200 195 193 192 193 196 195 187 184 185 186 187 187 185 185 184 183 187 189 188 191 196 197 195
296 273 253 236 233 238 230 226 236 143 307 327 342 347 347 343 337 337 340 339 334 328 294 234 207 204 200 194 197 198 197 191 184 184 186 188 187 188 188 187 186 186 187 188 190 194 199 201 201
334 245 226 211 217 232 210 218 193 33 10 347 342 349 351 352 348 348 349 348 346 345 331 280 229 214 207 201 205 206 201 195 191 188 191 190 189 191 191 188 189 189 190 190 190 194 201 204 202
296 259 250 239 235 249 215 206 114 46 18 5 360 359 1 359 354 350 346 343 343 343 341 328 269 234 215 210 212 211 204 199 197 195 193 195 196 196 193 192 192 191 189 187 190 195 199 203 206
312 282 288 276 266 242 209 165 134 18 11 7 6 7 3 358 354 352 348 345 344 344 343 338 317 280 226 212 210 209 206 202 199 200 199 198 198 194 193 193 194 192 189 188 188 195 196 198 206
351 328 280 257 239 234 222 214 329 356 357 357 359 357 355 355 353 351 350 347 346 347 345 344 336 306 272 230 216 215 213 208 200 198 201 199 198 194 192 192 193 192 191 191 192 194 194 196 202
8 10 329 275 276 260 240 187 29 355 349 351 351 351 351 353 351 348 348 349 350 354 356 354 348 341 315 265 231 217 215 213 203 201 201 199 196 193 194 194 193 192 193 193 194 197 194 198 201
27 8 339 291 286 281 270 301 42 14 6 2 354 353 352 355 355 354 354 356 356 355 355 354 350 344 333 299 252 229 215 210 206 201 202 197 196 195 195 193 193 193 195 194 195 197 198 201 203
Height
1514 1515 1517 1521 1520 1515 1509 1504 1506 1508 1509 1510 1511 1511 1509 1509 1511 1515 1514 1513 1515 1518 1521 1524 1527 1529 1532 1534 1536 1537 1539 1541 1542 1543 1544 1545 1546 1547 1548 1549 1550 1551 1552 1552 1553 1553 1554 1554 1555
1514 1516 1519 1520 1514 1509 1504 1501 1505 1506 1508 1510 1511 1511 1510 1510 1511 1512 1511 1512 1515 1518 1521 1524 1527 1529 1532 1534 1536 1538 1539 1541 1542 1544 1545 1546 1547 1548 1549 1550 1551 1552 1553 1553 1554 1554 1555 1556 1556
1514 1516 1519 1515 1509 1501 1498 1500 1502 1506 1509 1510 1510 1510 1510 1510 1511 1511 1511 1512 1515 1518 1521 1524 1526 1529 1532 1534 1536 1538 1540 1541 1543 1544 1546 1547 1548 1549 1550 1551 1552 1553 1554 1554 1555 1556 1556 1557 1558
1515 1518 1518 1512 1504 1499 1498 1501 1504 1506 1508 1509 1509 1509 1509 1509 1509 1510 1510 1512 1515 1518 1521 1524 1527 1529 1532 1534 1536 1538 1540 1541 1543 1545 1546 1547 1548 1549 1551 1552 1553 1554 1555 1555 1556 1557 1557 1558 1559
1514 1515 1511 1507 1501 1499 1501 1504 1505 1504 1505 1507 1508 1506 1507 1507 1507 1508 1510 1513 1515 1518 1521 1524 1527 1529 1532 1534 1536 1538 1540 1542 1543 1545 1546 1547 1549 1550 1551 1552 1553 1554 1555 1556 1557 1558 1559 1559 1560
1514 1511 1505 1499 1496 1498 1501 1504 1504 1503 1503 1505 1507 1506 1506 1506 1506 1508 1510 1513 1516 1518 1521 1524 1527 1529 1531 1534 1536 1538 1540 1541 1543 1545 1546 1547 1549 1550 1551 1552 1554 1555 1556 1557 1558 1559 1560 1560 1561
1511 1507 1499 1495 1494 1496 1498 1501 1501 1500 1501 1503 1505 1504 1504 1505 1506 1507 1510 1513 1516 1518 1521 1523 1526 1529 1531 1533 1536 1538 1539 1541 1543 1544 1546 1547 1549 1550 1552 1553 1554 1555 1556 1557 1558 1559 1560 1561 1562
1508 1506 1499 1496 1495 1493 1497 1499 1499 1500 1499 1502 1503 1502 1503 1504 1504 1507 1510 1513 1515 1518 1520 1523 1525 1528 1530 1533 1535 1537 1539 1541 1543 1544 1546 1547 1549 1550 1551 1553 1554 1555 1556 1558 1559 1560 1561 1562 1563
1507 1505 1494 1492 1493 1492 1496 1497 1498 1499 1499 1500 1500 1501 1501 1502 1503 1506 1509 1512 1514 1516 1519 1521 1524 1526 1529 1531 1533 1536 1538 1540 1542 1544 1545 1547 1548 1550 1551 1552 1554 1555 1556 1558 1559 1560 1561 1562 1563
1504 1496 1489 1491 1492 1492 1494 1495 1496 1497 1497 1498 1499 1499 1499 1500 1502 1504 1507 1509 1512 1514 1517 1519 1522 1525 1527 1530 1532 1534 1537 1539 1541 1543 1544 1546 1548 1549 1550 1551 1553 1555 1556 1557 1559 1560 1562 1563 1564
1497 1491 1490 1493 1494 1494 1494 1495 1496 1495 1494 1494 1496 1497 1498 1499 1501 1503 1505 1507 1509 1512 1515 1517 1520 1523 1525 1528 1530 1532 1534 1537 1539 1541 1543 1545 1546 1548 1549 1551 1552 1554 1556 1557 1559 1560 1561 1562 1563
1494 1492 1492 1492 1494 1494 1493 1493 1494 1493 1493 1494 1495 1495 1496 1498 1499 1501 1503 1506 1508 1510 1513 1515 1518 1520 1523 1526 1528 1530 1532 1535 1537 1539 1541 1543 1545 1546 1548 1550 1551 1553 1555 1556 1558 1559 1561 1562 1563
1491 1490 1491 1492 1492 1493 1492 1492 1491 1490 1491 1492 1492 1493 1495 1496 1498 1500 1502 1504 1506 1508 1510 1513 1515 1518 1521 1523 1525 1528 1530 1533 1535 1537 1539 1541 1543 1545 1547 1548 1550 1552 1553 1555 1557 1559 1560 1561 1562
1489 1489 1490 1490 1490 1490 1490 1489 1490 1487 1489 1490 1490 1491 1492 1494 1496 1497 1499 1501 1503 1505 1508 1510 1513 1516 1518 1521 1523 1525 1527 1530 1532 1534 1537 1539 1541 1543 1545 1547 1548 1550 1552 1554 1556 1557 1559 1560 1562
1490 1489 1487 1486 1487 1488 1489 1485 1485 1485 1487 1487 1488 1489 1490 1492 1493 1495 1496 1498 1500 1503 1505 1508 1510 1513 1515 1518 1520 1523 1525 1527 1530 1532 1534 1537 1539 1541 1543 1545 1546 1548 1550 1552 1554 1556 1558 1559 1561
1487 1485 1482 1480 1484 1485 1488 1478 1480 1483 1484 1485 1486 1487 1488 1490 1491 1492 1494 1496 1498 1500 1502 1505 1507 1510 1513 1515 1518 1520 1522 1525 1527 1529 1532 1534 1536 1539 1541 1542 1544 1546 1548 1550 1552 1554 1556 1558 1560
1482 1479 1477 1479 1481 1482 1482 1477 1481 1482 1483 1483 1484 1485 1486 1487 1488 1489 1491 1492 1495 1497 1499 1502 1504 1507 1510 1512 1515 1517 1520 1522 1524 1527 1529 1531 1534 1536 1538 1540 1542 1544 1546 1549 1551 1553 1555 1556 1558
1476 1476 1476 1477 1479 1481 1479 1477 1480 1482 1482 1482 1483 1484 1484 1485 1485 1487 1488 1489 1491 1493 1496 1499 1501 1504 1506 1509 1512 1514 1517 1519 1521 1524 1526 1529 1531 1533 1536 1538 1540 1542 1544 1546 1548 1551 1553 1555 1556
1478 1477 1476 1475 1479 1480 1477 1476 1478 1480 1481 1481 1482 1482 1483 1483 1484 1484 1485 1486 1488 1490 1492 1495 1498 1500 1503 1505 1507 1510 1513 1515 1518 1521 1523 1526 1528 1530 1533 1535 1537 1539 1542 1544 1546 1548 1551 1552 1554
1480 1478 1476 1477 1480 1480 1476 1476 1477 1479 1481 1481 1481 1482 1482 1482 1481 1481 1482 1483 1484 1486 1489 1491 1494 1497 1499 1502 1504 1507 1510 1512 1515 1517 1520 1522 1525 1527 1530 1532 1535 1537 1539 1541 1543 1546 1548 1550 1552
1480 1478 1477 1478 1479 1478 1477 1472 1474 1476 1479 1481 1481 1481 1481 1480 1480 1480 1480 1481 1482 1483 1485 1488 1490 1493 1496 1498 1501 1504 1506 1509 1512 1514 1516 1519 1521 1524 1527 1529 1532 1534 1536 1538 1540 1543 1545 1547 1549
1478 1480 1480 1479 1477 1473 1474 1469 1467 1472 1476 1478 1480 1480 1480 1479 1479 1478 1478 1479 1479 1481 1482 1484 1487 1489 1492 1495 1497 1499 1502 1504 1507 1510 1513 1515 1518 1521 1523 1526 1528 1531 1533 1535 1538 1540 1542 1545 1546
1482 1481 1480 1478 1475 1474 1471 1471 1464 1473 1475 1478 1480 1480 1479 1479 1478 1477 1477 1477 1477 1479 1480 1481 1484 1486 1488 1491 1493 1496 1499 1502 1505 1507 1510 1512 1515 1517 1520 1522 1525 1527 1530 1532 1535 1537 1539 1541 1543
1484 1482 1478 1475 1474 1474 1466 1467 1466 1477 1480 1480 1481 1481 1479 1478 1477 1476 1475 1475 1475 1476 1477 1479 1480 1482 1484 1487 1490 1492 1495 1498 1501 1503 1506 1508 1511 1513 1516 1519 1521 1524 1526 1529 1531 1534 1536 1538 1540
1484 1481 1475 1473 1470 1462 1464 1467 1477 1484 1486 1485 1483 1482 1480 1478 1476 1475 1474 1473 1473 1473 1474 1476 1477 1479 1481 1483 1486 1489 1491 1494 1497 1499 1502 1505 1507 1509 1512 1515 1517 1520 1523 1525 1528 1530 1532 1535 1537
1486 1483 1479 1472 1463 1460 1466 1468 1484 1489 1489 1487 1485 1482 1480 1478 1476 1475 1474 1473 1472 1472 1472 1473 1474 1476 1478 1480 1482 1485 1488 1490 1493 1496 1499 1501 1503 1506 1508 1511 1514 1516 1519 1521 1524 1526 1528 1531 1533
1488 1485 1485 1480 1471 1469 1467 1477 1485 1488 1488 1486 1484 1482 1480 1478 1476 1474 1473 1472 1471 1471 1471 1471 1472 1473 1475 1477 1479 1481 1484 1486 1489 1492 1495 1498 1500 1502 1504 1507 1509 1512 1515 1517 1520 1522 1524 1527 1529
1496 1491 1486 1482 1474 1466 1468 1475 1483 1489 1489 1487 1485 1483 1481 1479 1476 1474 1473 1471 1470 1470 1469 1470 1470 1471 1473 1474 1476 1478 1480 1483 1486 1488 1491 1494 1496 1498 1500 1503 1505 1508 1510 1513 1515 1518 1520 1522 1524
1498 1497 1492 1485 1480 1471 1470 1481 1493 1494 1493 1490 1489 1486 1483 1480 1477 1475 1473 1471 1470 1469 1468 1468 1468 1469 1470 1472 1473 1475 1477 1480 1482 1485 1487 1490 1492 1494 1496 1499 1501 1503 1506 1508 1511 1513 1516 1518 1520
1504 1503 1499 1491 1487 1482 1476 1489 1496 1496 1495 1493 1490 1487 1484 1481 1478 1476 1473 1471 1469 1468 1467 1466 1466 1467 1467 1469 1471 1472 1474 1476 1479 1481 1483 1486 1488 1490 1492 1495 1497 1499 1502 1504 1507 1509 1511 1513 1515